Location: Gniazdowice
(50.2124°N, 20.2673°E)
Time: 13:22:30
(UTC+00:00)

Meteor 1-28 Rocket - Pass Details

Date: 08 August 2024
Orbit: 467 x 482 km, 97.5° (Epoch: 15 September)

Event Time Altitude Azimuth Distance (km) Brightness Sun altitude
Exits shadow 02:03:20 16° 218° (SW) 1,369 4.7 -10.7°
Maximum altitude 02:05:26 26° 265° (W) 1,008 4.2 -10.5°
Drops below altitude 10° 02:08:31 10° 323° (NW) 1,687 5.9 -10.1°
Sets 02:10:51 0° 337° (NNW) 2,571 7.0 -9.8°
